TimeEDT,TemperatureF,Dew PointF,Humidity,Sea Level PressureIn,VisibilityMPH,Wind Direction,Wind SpeedMPH,Gust SpeedMPH,PrecipitationIn,Events,Conditions,WindDirDegrees,DateUTC
12:55 AM,46.0,37.9,73,30.08,10.0,SE,6.9,-,N/A,,Clear,130,2013-04-28 04:55:00
1:55 AM,45.0,37.9,76,30.07,10.0,ESE,4.6,-,N/A,,Clear,110,2013-04-28 05:55:00
2:55 AM,42.1,37.0,82,30.05,9.0,ENE,3.5,-,N/A,,Clear,70,2013-04-28 06:55:00
3:55 AM,41.0,37.0,86,30.04,10.0,Calm,Calm,-,N/A,,Clear,0,2013-04-28 07:55:00
4:55 AM,41.0,36.0,82,30.03,10.0,East,3.5,-,N/A,,Clear,100,2013-04-28 08:55:00
5:55 AM,39.0,36.0,89,30.03,9.0,Calm,Calm,-,N/A,,Clear,0,2013-04-28 09:55:00
6:55 AM,39.0,35.1,86,30.03,8.0,East,4.6,-,N/A,,Clear,80,2013-04-28 10:55:00
7:55 AM,41.0,36.0,82,30.04,10.0,East,6.9,-,N/A,,Clear,90,2013-04-28 11:55:00
8:55 AM,46.0,37.9,73,30.04,10.0,East,6.9,-,N/A,,Clear,100,2013-04-28 12:55:00
9:55 AM,50.0,37.9,63,30.02,10.0,East,5.8,-,N/A,,Clear,90,2013-04-28 13:55:00
10:55 AM,54.0,39.0,57,30.00,10.0,East,6.9,-,N/A,,Clear,90,2013-04-28 14:55:00
11:55 AM,57.9,39.0,49,29.99,10.0,East,6.9,-,N/A,,Partly Cloudy,100,2013-04-28 15:55:00
12:55 PM,64.0,39.9,41,29.96,10.0,Variable,5.8,-,N/A,,Clear,0,2013-04-28 16:55:00
1:55 PM,66.0,37.0,34,29.94,10.0,SE,8.1,-,N/A,,Scattered Clouds,130,2013-04-28 17:55:00
2:55 PM,63.0,37.0,38,29.93,10.0,ESE,11.5,-,N/A,,Partly Cloudy,120,2013-04-28 18:55:00
3:55 PM,63.0,37.0,38,29.92,10.0,East,9.2,-,N/A,,Scattered Clouds,100,2013-04-28 19:55:00
4:55 PM,61.0,36.0,39,29.90,10.0,ESE,13.8,20.7,N/A,,Partly Cloudy,110,2013-04-28 20:55:00
5:55 PM,59.0,37.0,44,29.89,10.0,SE,12.7,-,N/A,,Scattered Clouds,130,2013-04-28 21:55:00
6:55 PM,59.0,37.9,46,29.87,10.0,East,9.2,-,N/A,,Clear,100,2013-04-28 22:55:00
7:55 PM,55.9,37.9,51,29.86,10.0,East,5.8,-,N/A,,Clear,100,2013-04-28 23:55:00
8:55 PM,54.0,39.0,57,29.86,10.0,East,6.9,-,N/A,,Partly Cloudy,100,2013-04-29 00:55:00
9:55 PM,51.1,39.0,63,29.88,10.0,East,8.1,-,N/A,,Mostly Cloudy,100,2013-04-29 01:55:00
10:55 PM,50.0,39.9,68,29.86,10.0,East,9.2,-,N/A,,Mostly Cloudy,100,2013-04-29 02:55:00
11:55 PM,48.9,41.0,74,29.85,10.0,East,8.1,-,N/A,,Clear,100,2013-04-29 03:55:00